BAW219 EGKK-KDFW

Flight info

Callsign BAW219
Flight time 9h 53m
Altitude 36000
Route NOVMA L620 SAM N19 ADKIK DCT PEWBI DCT MOPAT DCT RESNO/M083F370 DCT 56N020W 56N030W 56N040W 55N050W DCT LOMSI/N0489F380 N668A TAFFY DCT PQI/N0490F400 DCT CABCI Q29 NIPPY DCT WILET DCT REBBL DCT LEJOY DCT EMNEM Q71 GEFFS DCT TONIO DCT ARTUR DCT NIOLA DCT VLKNN Q30 IZAAC DCT YUYUN BEREE3
Aircraft B772/H-SDE2E3FGHIJ5LORVWXY/LB1D1

Departure

Time 2026-05-04 08:28
Airport London Gatwick Airport (EGKK)

Arrival

Time 2026-05-04 18:21
Airport Dallas Fort Worth International Airport (KDFW)
Time Latitude Longitude Altitude Speed Heading
2026-05-04 07:59 51.15605 -0.16778 218 ft 0 kts 168°
2026-05-04 08:19 51.15646 -0.16792 211 ft 3 kts 169°
2026-05-04 08:19 51.15670 -0.16792 213 ft 4 kts 218°
2026-05-04 08:20 51.15681 -0.16761 214 ft 4 kts 258°
2026-05-04 08:20 51.15686 -0.16724 219 ft 1 kts 258°
2026-05-04 08:22 51.15683 -0.16752 215 ft 8 kts 258°
2026-05-04 08:24 51.15487 -0.17291 211 ft 12 kts 167°
2026-05-04 08:24 51.15406 -0.17263 217 ft 12 kts 167°
2026-05-04 08:24 51.15325 -0.17235 214 ft 12 kts 168°
2026-05-04 08:24 51.15250 -0.17181 217 ft 12 kts 145°
2026-05-04 08:25 51.15197 -0.17086 215 ft 12 kts 97°
2026-05-04 08:25 51.15213 -0.16957 212 ft 12 kts 77°
2026-05-04 08:25 51.15217 -0.16829 213 ft 12 kts 117°
2026-05-04 08:25 51.15147 -0.16790 209 ft 10 kts 190°
2026-05-04 08:26 51.15117 -0.16839 215 ft 10 kts 250°
2026-05-04 08:27 51.14338 -0.22480 694 ft 186 kts 258°
2026-05-04 08:28 51.14071 -0.24476 1324 ft 188 kts 259°
2026-05-04 08:28 51.13794 -0.26543 1943 ft 191 kts 258°
2026-05-04 08:28 51.13500 -0.28650 2222 ft 203 kts 258°
2026-05-04 08:28 51.13180 -0.30894 2454 ft 215 kts 258°
2026-05-04 08:29 51.12850 -0.33262 2641 ft 229 kts 258°
2026-05-04 08:29 51.12492 -0.35832 2956 ft 238 kts 258°
2026-05-04 08:29 51.12127 -0.38405 3279 ft 250 kts 258°
2026-05-04 08:31 51.07046 -0.57171 6571 ft 272 kts 243°
2026-05-04 08:33 51.03424 -0.77465 9950 ft 279 kts 257°
2026-05-04 08:33 51.03015 -0.80509 10252 ft 288 kts 257°
2026-05-04 08:35 50.99399 -1.06295 12844 ft 374 kts 256°
2026-05-04 08:35 50.98845 -1.10355 13662 ft 378 kts 256°
2026-05-04 08:35 50.98283 -1.14460 14371 ft 383 kts 256°
2026-05-04 08:35 50.97712 -1.18612 15085 ft 387 kts 256°
2026-05-04 08:37 50.94221 -1.44349 19354 ft 409 kts 257°
2026-05-04 08:37 50.93664 -1.48789 20057 ft 411 kts 257°
2026-05-04 08:37 50.93103 -1.53243 20785 ft 413 kts 257°
2026-05-04 08:38 50.92536 -1.57704 21494 ft 414 kts 256°
2026-05-04 08:38 50.91961 -1.62191 22161 ft 417 kts 256°
2026-05-04 08:38 50.91379 -1.66703 22796 ft 419 kts 256°
2026-05-04 08:40 50.87125 -1.99206 26056 ft 441 kts 255°
2026-05-04 08:40 50.86495 -2.03972 26501 ft 443 kts 255°
2026-05-04 08:40 50.85870 -2.08701 26883 ft 446 kts 255°
2026-05-04 08:41 50.85230 -2.13524 27207 ft 450 kts 255°
2026-05-04 08:41 50.84576 -2.18438 27570 ft 453 kts 255°
2026-05-04 08:41 50.83924 -2.23325 27936 ft 455 kts 254°
2026-05-04 08:41 50.83276 -2.28170 28282 ft 457 kts 254°
2026-05-04 08:42 50.82614 -2.33099 28610 ft 459 kts 254°
2026-05-04 08:42 50.81946 -2.38062 28804 ft 465 kts 255°
2026-05-04 08:42 50.81266 -2.43086 28925 ft 470 kts 255°
2026-05-04 08:42 50.80614 -2.48166 29213 ft 473 kts 258°
2026-05-04 08:43 50.80402 -2.53381 29515 ft 479 kts 268°
2026-05-04 08:43 50.80733 -2.58652 29796 ft 485 kts 276°
2026-05-04 08:43 50.81558 -2.63851 30045 ft 490 kts 285°
2026-05-04 08:43 50.82701 -2.68930 30272 ft 492 kts 287°
2026-05-04 08:44 50.83866 -2.74013 30584 ft 491 kts 287°
2026-05-04 08:44 50.85022 -2.79085 30928 ft 489 kts 287°
2026-05-04 08:46 50.92757 -3.14520 32897 ft 484 kts 288°
2026-05-04 08:46 50.93841 -3.19575 33165 ft 484 kts 288°
2026-05-04 08:46 50.94922 -3.24627 33445 ft 483 kts 288°
2026-05-04 08:46 50.95997 -3.29663 33716 ft 483 kts 288°
2026-05-04 08:47 50.97074 -3.34718 33905 ft 484 kts 288°
2026-05-04 08:47 50.98151 -3.39792 34073 ft 486 kts 288°
2026-05-04 08:47 50.99229 -3.44877 34261 ft 486 kts 288°
2026-05-04 08:47 51.00305 -3.49964 34460 ft 486 kts 288°
2026-05-04 08:48 51.01377 -3.55048 34679 ft 485 kts 288°
2026-05-04 08:48 51.02445 -3.60126 34852 ft 486 kts 288°
2026-05-04 08:48 51.03514 -3.65224 35045 ft 486 kts 288°
2026-05-04 08:48 51.04579 -3.70311 35303 ft 485 kts 288°
2026-05-04 08:49 51.05640 -3.75392 35480 ft 485 kts 288°
2026-05-04 08:50 51.12003 -4.06148 36000 ft 488 kts 288°
2026-05-04 08:50 51.13055 -4.11277 36000 ft 487 kts 288°
2026-05-04 08:51 51.15143 -4.21501 36001 ft 485 kts 288°
2026-05-04 08:51 51.17220 -4.31729 36009 ft 485 kts 288°
2026-05-04 08:52 51.19291 -4.41972 36008 ft 486 kts 288°
2026-05-04 08:52 51.21353 -4.52227 36008 ft 486 kts 288°
2026-05-04 08:54 51.29550 -4.93541 36014 ft 490 kts 288°
2026-05-04 08:55 51.31507 -5.03978 35994 ft 491 kts 283°
2026-05-04 08:55 51.32644 -5.14723 36009 ft 491 kts 279°
2026-05-04 09:01 51.43087 -6.28360 36011 ft 493 kts 279°
2026-05-04 09:01 51.44035 -6.39229 36022 ft 493 kts 279°
2026-05-04 09:02 51.44976 -6.50142 36029 ft 495 kts 279°
2026-05-04 09:02 51.45909 -6.61089 36036 ft 496 kts 279°
2026-05-04 09:03 51.46834 -6.72066 36023 ft 498 kts 279°
2026-05-04 09:03 51.47751 -6.83077 36037 ft 498 kts 279°
2026-05-04 09:04 51.48652 -6.94008 36029 ft 498 kts 279°
2026-05-04 09:04 51.49759 -7.04941 36027 ft 495 kts 289°
2026-05-04 09:05 51.52639 -7.14861 36052 ft 488 kts 306°
2026-05-04 09:05 51.56875 -7.23306 36067 ft 487 kts 313°
2026-05-04 09:06 51.61252 -7.31647 36037 ft 487 kts 313°
2026-05-04 09:08 51.78401 -7.65310 36057 ft 485 kts 312°
2026-05-04 09:08 51.82663 -7.73776 36052 ft 485 kts 313°
2026-05-04 09:09 51.86911 -7.82242 36052 ft 485 kts 313°
2026-05-04 09:09 51.90443 -7.89302 36058 ft 485 kts 313°
2026-05-04 09:10 51.94682 -7.97798 36060 ft 485 kts 313°
2026-05-04 09:10 51.98921 -8.06324 36067 ft 485 kts 313°
2026-05-04 09:11 52.03151 -8.14861 36065 ft 486 kts 313°
2026-05-04 09:11 52.07381 -8.23425 36071 ft 486 kts 313°
2026-05-04 09:12 52.11607 -8.32012 36073 ft 486 kts 313°
2026-05-04 09:14 52.28462 -8.66550 36080 ft 485 kts 313°
2026-05-04 09:14 52.32642 -8.75189 36103 ft 484 kts 313°
2026-05-04 09:15 52.36815 -8.83841 36099 ft 484 kts 313°
2026-05-04 09:15 52.40982 -8.92509 36116 ft 485 kts 313°
2026-05-04 09:17 52.59553 -9.31512 36113 ft 481 kts 312°
2026-05-04 09:18 52.63656 -9.40210 36104 ft 481 kts 312°
2026-05-04 09:18 52.67771 -9.48964 36123 ft 480 kts 312°
2026-05-04 09:19 52.71825 -9.57619 36122 ft 480 kts 312°
2026-05-04 09:19 52.75891 -9.66328 36113 ft 478 kts 311°
2026-05-04 09:20 52.79936 -9.75022 36116 ft 477 kts 311°
2026-05-04 09:20 52.83973 -9.83729 36135 ft 477 kts 311°
2026-05-04 09:21 52.87998 -9.92437 36132 ft 476 kts 311°
2026-05-04 09:21 52.92006 -10.01142 36136 ft 475 kts 311°
2026-05-04 09:22 52.96011 -10.09868 36138 ft 475 kts 311°
2026-05-04 09:22 53.00009 -10.18610 36137 ft 475 kts 311°
2026-05-04 09:23 53.03998 -10.27364 36136 ft 476 kts 311°
2026-05-04 09:23 53.07986 -10.36143 36144 ft 476 kts 311°
2026-05-04 09:25 53.23888 -10.71462 36149 ft 477 kts 310°
2026-05-04 09:26 53.27849 -10.80338 36136 ft 476 kts 310°
2026-05-04 09:26 53.31796 -10.89213 36145 ft 475 kts 310°
2026-05-04 09:27 53.35725 -10.98080 36154 ft 474 kts 310°
2026-05-04 09:27 53.39650 -11.06966 36157 ft 474 kts 310°
2026-05-04 09:28 53.43567 -11.15866 36157 ft 474 kts 310°
2026-05-04 09:28 53.47473 -11.24773 36153 ft 474 kts 309°
2026-05-04 09:29 53.51344 -11.33632 36162 ft 473 kts 309°
2026-05-04 09:29 53.55223 -11.42541 36163 ft 472 kts 309°
2026-05-04 09:30 53.59094 -11.51463 36157 ft 471 kts 309°
2026-05-04 09:30 53.62953 -11.60387 36168 ft 471 kts 309°
2026-05-04 09:31 53.66797 -11.69311 36170 ft 471 kts 309°
2026-05-04 09:31 53.70636 -11.78252 36169 ft 470 kts 308°
2026-05-04 09:32 53.74461 -11.87195 36166 ft 469 kts 308°
2026-05-04 09:34 53.89655 -12.23031 36187 ft 468 kts 307°
2026-05-04 09:34 53.93430 -12.32016 36167 ft 467 kts 307°
2026-05-04 09:35 53.97192 -12.41001 36169 ft 466 kts 307°
2026-05-04 09:35 54.00939 -12.49983 36163 ft 466 kts 307°
2026-05-04 09:37 54.15853 -12.86051 36176 ft 465 kts 306°
2026-05-04 09:38 54.19559 -12.95097 36157 ft 465 kts 306°
2026-05-04 09:38 54.23229 -13.04087 36171 ft 465 kts 306°
2026-05-04 09:39 54.26922 -13.13164 36178 ft 465 kts 306°
2026-05-04 09:39 54.30602 -13.22244 36180 ft 464 kts 306°
2026-05-04 09:40 54.34272 -13.31331 36156 ft 463 kts 306°
2026-05-04 09:40 54.37927 -13.40416 36171 ft 462 kts 306°
2026-05-04 09:42 54.52439 -13.76811 36173 ft 462 kts 305°
2026-05-04 09:43 54.56052 -13.85958 36170 ft 462 kts 305°
2026-05-04 09:43 54.59655 -13.95111 36173 ft 461 kts 304°
2026-05-04 09:44 54.63251 -14.04280 36167 ft 459 kts 305°
2026-05-04 09:46 54.77450 -14.40821 36163 ft 452 kts 303°
2026-05-04 09:46 54.80949 -14.49911 36175 ft 456 kts 303°
2026-05-04 09:47 54.84485 -14.59130 36182 ft 459 kts 303°
2026-05-04 09:49 54.98475 -14.95948 36172 ft 462 kts 302°
2026-05-04 09:51 55.07179 -15.32002 36173 ft 460 kts 290°
2026-05-04 09:51 55.09481 -15.42404 36169 ft 458 kts 291°
2026-05-04 09:52 55.11771 -15.52772 36170 ft 457 kts 290°
2026-05-04 09:52 55.14043 -15.63104 36174 ft 456 kts 290°
2026-05-04 09:53 55.16305 -15.73450 36174 ft 455 kts 290°
2026-05-04 09:53 55.18556 -15.83797 36180 ft 456 kts 290°
2026-05-04 09:54 55.20803 -15.94177 36180 ft 456 kts 290°
2026-05-04 09:54 55.22664 -16.02816 36177 ft 457 kts 290°
2026-05-04 09:55 55.24900 -16.13239 36195 ft 457 kts 289°
2026-05-04 09:55 55.27124 -16.23662 36174 ft 456 kts 289°
2026-05-04 09:56 55.29332 -16.34067 36183 ft 455 kts 289°
2026-05-04 09:56 55.31533 -16.44489 36184 ft 455 kts 289°
2026-05-04 09:57 55.33724 -16.54918 36184 ft 455 kts 289°
2026-05-04 09:57 55.35904 -16.65348 36182 ft 455 kts 289°
2026-05-04 09:58 55.38079 -16.75806 36185 ft 455 kts 289°
2026-05-04 09:58 55.40242 -16.86263 36189 ft 455 kts 289°
2026-05-04 10:00 55.48830 -17.28333 36193 ft 456 kts 289°
2026-05-04 10:04 55.63500 -18.02335 36195 ft 456 kts 288°
2026-05-04 10:04 55.65559 -18.12954 36195 ft 456 kts 288°
2026-05-04 10:05 55.67612 -18.23597 36195 ft 456 kts 288°
2026-05-04 10:05 55.69656 -18.34252 36204 ft 457 kts 288°
2026-05-04 10:06 55.71689 -18.44912 36208 ft 457 kts 288°
2026-05-04 10:06 55.73717 -18.55602 36199 ft 457 kts 288°
2026-05-04 10:08 55.80731 -18.93049 36195 ft 457 kts 287°
2026-05-04 10:08 55.82716 -19.03782 36215 ft 457 kts 287°
2026-05-04 10:09 55.84692 -19.14533 36207 ft 457 kts 287°
2026-05-04 10:09 55.86659 -19.25293 36225 ft 458 kts 287°
2026-05-04 10:10 55.88620 -19.36083 36215 ft 458 kts 287°
2026-05-04 10:10 55.90571 -19.46884 36214 ft 458 kts 287°
2026-05-04 10:11 55.92509 -19.57675 36210 ft 457 kts 287°
2026-05-04 10:11 55.94439 -19.68483 36214 ft 457 kts 287°
2026-05-04 10:12 55.96359 -19.79302 36218 ft 457 kts 287°
2026-05-04 10:12 55.98271 -19.90127 36222 ft 458 kts 286°
2026-05-04 10:13 55.99936 -20.01084 36213 ft 457 kts 279°
2026-05-04 10:13 56.00554 -20.12356 36241 ft 456 kts 273°
2026-05-04 10:14 56.00954 -20.23654 36227 ft 456 kts 273°
2026-05-04 10:16 56.02593 -20.68850 36234 ft 456 kts 274°
2026-05-04 10:16 56.02984 -20.80177 36238 ft 456 kts 273°
2026-05-04 10:17 56.03364 -20.91501 36233 ft 456 kts 274°
2026-05-04 10:19 56.04609 -21.31032 37215 ft 456 kts 273°
2026-05-04 10:19 56.04777 -21.36703 37244 ft 457 kts 273°
2026-05-04 10:19 56.05106 -21.48047 37251 ft 456 kts 273°
2026-05-04 10:20 56.05423 -21.59369 37249 ft 456 kts 273°
2026-05-04 10:20 56.05730 -21.70686 37246 ft 455 kts 273°
2026-05-04 10:21 56.06026 -21.81994 37252 ft 455 kts 273°
2026-05-04 10:21 56.06311 -21.93282 37254 ft 454 kts 273°
2026-05-04 10:22 56.06721 -22.10233 37254 ft 454 kts 273°
2026-05-04 10:23 56.06980 -22.21528 37267 ft 455 kts 273°
2026-05-04 10:25 56.07918 -22.66831 37270 ft 456 kts 272°
2026-05-04 10:25 56.08127 -22.78169 37274 ft 456 kts 272°
2026-05-04 10:26 56.08325 -22.89497 37268 ft 456 kts 272°
2026-05-04 10:26 56.08512 -23.00836 37265 ft 455 kts 272°
2026-05-04 10:27 56.08690 -23.12166 37271 ft 455 kts 272°
2026-05-04 10:27 56.08857 -23.23488 37269 ft 455 kts 272°
2026-05-04 10:28 56.09013 -23.34817 37280 ft 455 kts 272°
2026-05-04 10:28 56.09158 -23.46071 37269 ft 455 kts 272°
2026-05-04 10:29 56.09294 -23.57389 37283 ft 455 kts 271°
2026-05-04 10:29 56.09420 -23.68728 37268 ft 455 kts 271°
2026-05-04 10:30 56.09535 -23.80072 37270 ft 456 kts 271°
2026-05-04 10:30 56.09639 -23.91411 37289 ft 456 kts 271°
2026-05-04 10:31 56.09734 -24.02761 37269 ft 456 kts 271°
2026-05-04 10:32 56.09983 -24.42484 37281 ft 456 kts 271°
2026-05-04 10:33 56.10030 -24.53824 37298 ft 455 kts 271°
2026-05-04 10:33 56.10067 -24.65173 37297 ft 455 kts 270°
2026-05-04 10:34 56.10094 -24.76502 37276 ft 455 kts 270°
2026-05-04 10:34 56.10110 -24.87850 37297 ft 456 kts 270°
2026-05-04 10:35 56.10116 -24.99202 37295 ft 456 kts 270°
2026-05-04 10:35 56.10112 -25.10554 37283 ft 456 kts 270°
2026-05-04 10:36 56.10097 -25.21918 37280 ft 456 kts 270°
2026-05-04 10:36 56.10072 -25.33273 37297 ft 456 kts 270°
2026-05-04 10:37 56.10036 -25.44650 37288 ft 457 kts 270°
2026-05-04 10:37 56.09990 -25.56022 37292 ft 457 kts 269°
2026-05-04 10:39 56.09760 -25.93962 37290 ft 457 kts 269°
2026-05-04 10:40 56.09669 -26.05343 37313 ft 457 kts 269°
2026-05-04 10:40 56.09567 -26.16738 37312 ft 457 kts 269°
2026-05-04 10:41 56.09454 -26.28126 37313 ft 458 kts 269°
2026-05-04 10:41 56.09331 -26.39523 37300 ft 458 kts 269°
2026-05-04 10:42 56.09197 -26.50925 37302 ft 458 kts 269°
2026-05-04 10:42 56.09053 -26.62306 37315 ft 457 kts 269°
2026-05-04 10:43 56.08898 -26.73687 37308 ft 457 kts 269°
2026-05-04 10:45 56.08176 -27.19163 37311 ft 456 kts 268°
2026-05-04 10:45 56.07970 -27.30502 37315 ft 456 kts 268°
2026-05-04 10:46 56.07754 -27.41845 37326 ft 456 kts 268°
2026-05-04 10:46 56.07527 -27.53182 37316 ft 456 kts 268°
2026-05-04 10:47 56.07290 -27.64509 37327 ft 456 kts 268°
2026-05-04 10:47 56.07042 -27.75843 37323 ft 456 kts 268°
2026-05-04 10:49 56.05949 -28.21134 37326 ft 456 kts 267°
2026-05-04 10:50 56.05649 -28.32477 37338 ft 456 kts 267°
2026-05-04 10:52 56.04344 -28.77869 37338 ft 457 kts 267°
2026-05-04 10:52 56.03991 -28.89226 37340 ft 457 kts 267°
2026-05-04 10:54 56.02479 -29.34539 37337 ft 457 kts 266°
2026-05-04 10:56 56.00798 -29.79901 37346 ft 458 kts 266°
2026-05-04 10:57 56.00353 -29.91267 37350 ft 459 kts 266°
2026-05-04 10:57 56.00054 -30.02651 37335 ft 459 kts 272°
2026-05-04 10:58 56.00507 -30.14012 37334 ft 459 kts 274°
2026-05-04 10:58 56.00986 -30.25397 37334 ft 459 kts 274°
2026-05-04 10:59 56.01434 -30.36774 37351 ft 459 kts 274°
2026-05-04 10:59 56.01860 -30.48170 37334 ft 459 kts 274°
2026-05-04 11:00 56.02271 -30.59570 37330 ft 459 kts 273°
2026-05-04 11:02 56.03812 -31.05160 37351 ft 461 kts 273°
2026-05-04 11:05 56.06262 -31.91141 37358 ft 463 kts 272°
2026-05-04 11:06 56.06544 -32.02647 37347 ft 463 kts 272°
2026-05-04 11:06 56.06816 -32.14177 37348 ft 464 kts 272°
2026-05-04 11:10 56.08420 -32.94998 37371 ft 466 kts 272°
2026-05-04 11:12 56.09102 -33.41408 37359 ft 466 kts 271°
2026-05-04 11:12 56.09245 -33.53018 37363 ft 466 kts 271°
2026-05-04 11:13 56.09378 -33.64626 37357 ft 466 kts 271°
2026-05-04 11:13 56.09499 -33.76250 37364 ft 467 kts 271°
2026-05-04 11:14 56.09610 -33.87795 37372 ft 467 kts 271°
2026-05-04 11:16 56.09944 -34.34402 37373 ft 468 kts 271°
2026-05-04 11:16 56.10001 -34.46045 37358 ft 468 kts 271°
2026-05-04 11:17 56.10046 -34.57686 37367 ft 467 kts 271°
2026-05-04 11:19 56.10118 -35.04346 37367 ft 469 kts 271°
2026-05-04 11:19 56.10108 -35.16031 37357 ft 470 kts 270°
2026-05-04 11:20 56.10087 -35.27727 37356 ft 469 kts 270°
2026-05-04 11:20 56.10055 -35.39417 37350 ft 469 kts 270°
2026-05-04 11:22 56.09819 -35.86121 37353 ft 469 kts 270°
2026-05-04 11:23 56.09732 -35.97798 37351 ft 468 kts 270°
2026-05-04 11:25 56.09343 -36.38521 37343 ft 468 kts 270°
2026-05-04 11:25 56.09207 -36.50158 37353 ft 468 kts 269°
2026-05-04 11:27 56.08493 -37.00544 37344 ft 466 kts 269°
2026-05-04 11:28 56.08300 -37.12150 37343 ft 466 kts 269°
2026-05-04 11:28 56.08095 -37.23745 37344 ft 466 kts 269°
2026-05-04 11:29 56.07880 -37.35328 37339 ft 466 kts 269°
2026-05-04 11:29 56.07654 -37.46927 37343 ft 466 kts 269°
2026-05-04 11:33 56.05770 -38.27958 37323 ft 464 kts 268°
2026-05-04 11:33 56.05459 -38.39484 37321 ft 464 kts 268°
2026-05-04 11:34 56.05136 -38.51016 37319 ft 464 kts 268°
2026-05-04 11:34 56.04803 -38.62548 37309 ft 464 kts 268°
2026-05-04 11:35 56.04460 -38.74055 37306 ft 463 kts 268°
2026-05-04 11:35 56.04106 -38.85560 37310 ft 463 kts 268°
2026-05-04 11:36 56.03742 -38.97057 37309 ft 463 kts 268°
2026-05-04 11:36 56.03368 -39.08536 37306 ft 463 kts 268°
2026-05-04 11:37 56.02982 -39.20024 37301 ft 463 kts 268°
2026-05-04 11:37 56.02586 -39.31498 37284 ft 463 kts 268°
2026-05-04 11:38 56.02179 -39.42973 37293 ft 462 kts 268°
2026-05-04 11:38 56.01763 -39.54437 37296 ft 462 kts 267°
2026-05-04 11:39 56.01336 -39.65882 37290 ft 462 kts 267°
2026-05-04 11:41 55.99717 -40.05902 37285 ft 460 kts 266°
2026-05-04 11:41 55.99045 -40.17272 37269 ft 460 kts 265°
2026-05-04 11:42 55.98339 -40.28604 37274 ft 459 kts 265°
2026-05-04 11:42 55.97641 -40.39935 37266 ft 459 kts 265°
2026-05-04 11:43 55.96945 -40.51246 37263 ft 459 kts 265°
2026-05-04 11:43 55.96248 -40.62484 37257 ft 458 kts 265°
2026-05-04 11:44 55.95536 -40.73769 37257 ft 456 kts 265°
2026-05-04 11:44 55.94819 -40.84985 37251 ft 454 kts 265°
2026-05-04 11:45 55.94093 -40.96170 37244 ft 453 kts 265°
2026-05-04 11:45 55.93358 -41.07328 37244 ft 453 kts 265°
2026-05-04 11:46 55.92614 -41.18464 37244 ft 453 kts 265°
2026-05-04 11:46 55.91859 -41.29620 37242 ft 453 kts 265°
2026-05-04 11:47 55.91093 -41.40759 37229 ft 452 kts 265°
2026-05-04 11:47 55.90322 -41.51841 37232 ft 450 kts 265°
2026-05-04 11:48 55.89543 -41.62898 37234 ft 449 kts 265°
2026-05-04 11:48 55.88756 -41.73921 37223 ft 449 kts 265°
2026-05-04 11:49 55.87958 -41.84942 37223 ft 448 kts 265°
2026-05-04 11:49 55.87151 -41.95958 37224 ft 448 kts 265°
2026-05-04 11:50 55.86335 -42.06945 37207 ft 447 kts 265°
2026-05-04 11:50 55.85511 -42.17925 37210 ft 447 kts 265°
2026-05-04 11:51 55.84678 -42.28876 37205 ft 447 kts 265°
2026-05-04 11:51 55.83836 -42.39831 37202 ft 447 kts 265°
2026-05-04 11:52 55.82983 -42.50782 37191 ft 447 kts 265°
2026-05-04 11:52 55.82121 -42.61718 37192 ft 447 kts 265°
2026-05-04 11:53 55.81248 -42.72663 37187 ft 447 kts 265°
2026-05-04 11:53 55.80372 -42.83532 37183 ft 447 kts 265°
2026-05-04 11:55 55.76742 -43.27289 37169 ft 448 kts 265°
2026-05-04 11:56 55.75811 -43.38206 37151 ft 445 kts 264°
2026-05-04 11:56 55.74877 -43.49028 37149 ft 442 kts 264°
2026-05-04 11:57 55.73942 -43.59757 37162 ft 439 kts 263°
2026-05-04 11:57 55.73004 -43.70422 37148 ft 436 kts 263°
2026-05-04 11:58 55.72061 -43.81025 37152 ft 434 kts 263°
2026-05-04 11:58 55.71113 -43.91585 37146 ft 434 kts 263°
2026-05-04 11:59 55.70153 -44.02161 37141 ft 435 kts 263°
2026-05-04 11:59 55.69183 -44.12755 37129 ft 436 kts 263°
2026-05-04 12:00 55.68202 -44.23353 37131 ft 436 kts 263°
2026-05-04 12:00 55.67216 -44.33900 37130 ft 437 kts 263°
2026-05-04 12:01 55.66215 -44.44514 37118 ft 437 kts 263°
2026-05-04 12:02 55.62663 -44.81349 37104 ft 429 kts 262°
2026-05-04 12:03 55.61638 -44.91771 37096 ft 430 kts 262°
2026-05-04 12:03 55.60601 -45.02212 37095 ft 431 kts 262°
2026-05-04 12:04 55.59554 -45.12655 37097 ft 432 kts 261°
2026-05-04 12:04 55.58496 -45.23114 37078 ft 432 kts 261°
2026-05-04 12:05 55.57430 -45.33564 37078 ft 432 kts 261°
2026-05-04 12:05 55.56352 -45.44041 37062 ft 434 kts 261°
2026-05-04 12:06 55.55260 -45.54545 37068 ft 435 kts 261°
2026-05-04 12:06 55.54159 -45.65064 37052 ft 437 kts 260°
2026-05-04 12:07 55.53043 -45.75622 37051 ft 438 kts 260°
2026-05-04 12:07 55.51917 -45.86179 37051 ft 438 kts 260°
2026-05-04 12:08 55.50780 -45.96756 37046 ft 439 kts 259°
2026-05-04 12:08 55.49638 -46.07281 37038 ft 440 kts 259°
2026-05-04 12:09 55.48470 -46.17955 37029 ft 441 kts 259°
2026-05-04 12:09 55.47305 -46.28513 37027 ft 442 kts 259°
2026-05-04 12:10 55.46122 -46.39149 37027 ft 442 kts 259°
2026-05-04 12:10 55.44930 -46.49770 37013 ft 442 kts 259°
2026-05-04 12:11 55.43729 -46.60395 37002 ft 442 kts 258°
2026-05-04 12:11 55.42517 -46.71025 37003 ft 443 kts 258°
2026-05-04 12:12 55.41294 -46.81654 37004 ft 444 kts 258°
2026-05-04 12:12 55.40058 -46.92310 36997 ft 445 kts 258°
2026-05-04 12:14 55.35238 -47.33095 36975 ft 445 kts 257°
2026-05-04 12:15 55.33957 -47.43725 36976 ft 445 kts 257°
2026-05-04 12:15 55.32666 -47.54350 36967 ft 445 kts 257°
2026-05-04 12:16 55.31367 -47.64965 36964 ft 445 kts 256°
2026-05-04 12:16 55.30055 -47.75604 36952 ft 446 kts 256°
2026-05-04 12:17 55.28733 -47.86237 36945 ft 446 kts 256°
2026-05-04 12:17 55.27401 -47.96877 36942 ft 447 kts 256°
2026-05-04 12:18 55.26059 -48.07514 36931 ft 447 kts 256°
2026-05-04 12:18 55.24709 -48.18135 36931 ft 447 kts 256°
2026-05-04 12:19 55.23348 -48.28754 36924 ft 446 kts 256°
2026-05-04 12:19 55.21979 -48.39364 36917 ft 446 kts 255°
2026-05-04 12:20 55.20602 -48.49954 36907 ft 447 kts 255°
2026-05-04 12:20 55.19213 -48.60561 36908 ft 448 kts 255°
2026-05-04 12:21 55.17810 -48.71192 36906 ft 449 kts 255°
2026-05-04 12:21 55.16396 -48.81829 36895 ft 450 kts 255°
2026-05-04 12:22 55.14970 -48.92488 36902 ft 450 kts 254°
2026-05-04 12:22 55.13534 -49.03140 36877 ft 451 kts 254°
2026-05-04 12:23 55.12096 -49.13731 36889 ft 451 kts 253°
2026-05-04 12:23 55.10639 -49.24382 36861 ft 450 kts 253°
2026-05-04 12:24 55.09177 -49.34999 36862 ft 450 kts 253°
2026-05-04 12:24 55.07706 -49.45603 36862 ft 449 kts 253°
2026-05-04 12:25 55.06228 -49.56190 36867 ft 449 kts 253°
2026-05-04 12:25 55.04737 -49.66783 36856 ft 451 kts 253°
2026-05-04 12:26 55.03233 -49.77406 36845 ft 451 kts 252°
2026-05-04 12:26 55.01719 -49.88034 36836 ft 452 kts 252°
2026-05-04 12:27 55.00174 -49.98639 36829 ft 450 kts 250°
2026-05-04 12:27 54.97950 -50.08745 36837 ft 446 kts 243°
2026-05-04 12:28 54.95505 -50.18681 36819 ft 447 kts 243°
2026-05-04 12:28 54.93071 -50.28623 36819 ft 447 kts 244°
2026-05-04 12:29 54.90644 -50.38553 36820 ft 447 kts 244°
2026-05-04 12:29 54.88209 -50.48484 36805 ft 447 kts 243°
2026-05-04 12:30 54.85767 -50.58404 36805 ft 447 kts 243°
2026-05-04 12:30 54.83318 -50.68305 36800 ft 448 kts 243°
2026-05-04 12:31 54.80851 -50.78233 36799 ft 449 kts 243°
2026-05-04 12:31 54.78371 -50.88162 36796 ft 450 kts 242°
2026-05-04 12:32 54.74626 -51.03082 36771 ft 450 kts 242°
2026-05-04 12:33 54.72118 -51.13020 36769 ft 450 kts 242°
2026-05-04 12:33 54.69605 -51.22931 36762 ft 450 kts 242°
2026-05-04 12:34 54.67084 -51.32831 36784 ft 450 kts 242°
2026-05-04 12:34 54.64555 -51.42717 36752 ft 450 kts 241°
2026-05-04 12:35 54.62021 -51.52574 36746 ft 449 kts 241°
2026-05-04 12:35 54.59496 -51.62358 36744 ft 449 kts 241°
2026-05-04 12:36 54.56951 -51.72178 36738 ft 449 kts 241°
2026-05-04 12:36 54.54395 -51.81992 36737 ft 449 kts 241°
2026-05-04 12:37 54.51825 -51.91815 36723 ft 451 kts 240°
2026-05-04 12:37 54.49240 -52.01657 36725 ft 453 kts 240°
2026-05-04 12:38 54.46635 -52.11532 36714 ft 454 kts 240°
2026-05-04 12:38 54.44018 -52.21409 36713 ft 455 kts 240°
2026-05-04 12:39 54.41387 -52.31300 36703 ft 455 kts 240°
2026-05-04 12:39 54.38744 -52.41189 36709 ft 456 kts 239°
2026-05-04 12:40 54.36093 -52.51066 36685 ft 456 kts 239°
2026-05-04 12:40 54.33431 -52.60940 36684 ft 456 kts 239°
2026-05-04 12:41 54.30764 -52.70792 36676 ft 455 kts 239°
2026-05-04 12:41 54.28094 -52.80611 36676 ft 455 kts 239°
2026-05-04 12:42 54.25413 -52.90426 36672 ft 456 kts 239°
2026-05-04 12:42 54.22722 -53.00238 36668 ft 456 kts 239°
2026-05-04 12:43 54.20034 -53.09997 36640 ft 458 kts 238°
2026-05-04 12:43 54.17312 -53.19838 36643 ft 459 kts 238°
2026-05-04 12:44 54.14580 -53.29673 36634 ft 459 kts 238°
2026-05-04 12:44 54.11833 -53.39521 36634 ft 461 kts 238°
2026-05-04 12:45 54.09069 -53.49387 36623 ft 462 kts 238°
2026-05-04 12:45 54.06294 -53.59250 36621 ft 462 kts 238°
2026-05-04 12:46 54.03505 -53.69121 36613 ft 463 kts 238°
2026-05-04 12:46 54.00709 -53.78980 36607 ft 463 kts 238°
2026-05-04 12:47 53.97906 -53.88817 36599 ft 464 kts 237°
2026-05-04 12:47 53.95083 -53.98680 36601 ft 465 kts 237°
2026-05-04 12:48 53.92251 -54.08537 36587 ft 465 kts 237°
2026-05-04 12:48 53.89406 -54.18398 36588 ft 465 kts 237°
2026-05-04 12:49 53.86548 -54.28261 36577 ft 467 kts 237°
2026-05-04 12:49 53.83672 -54.38141 36576 ft 469 kts 237°
2026-05-04 12:50 53.80781 -54.48032 36567 ft 470 kts 237°
2026-05-04 12:50 53.77874 -54.57943 36563 ft 471 kts 237°
2026-05-04 12:51 53.74954 -54.67851 36549 ft 471 kts 237°
2026-05-04 12:51 53.72030 -54.77735 36544 ft 471 kts 237°
2026-05-04 12:52 53.69112 -54.87557 36537 ft 472 kts 236°
2026-05-04 12:52 53.66144 -54.97502 36535 ft 472 kts 236°
2026-05-04 12:53 53.63202 -55.07321 36540 ft 472 kts 236°
2026-05-04 12:53 53.60232 -55.17193 36535 ft 472 kts 236°
2026-05-04 12:54 53.57257 -55.27042 36534 ft 472 kts 236°
2026-05-04 12:54 53.54270 -55.36890 36548 ft 473 kts 236°
2026-05-04 12:55 53.51270 -55.46738 36531 ft 473 kts 236°
2026-05-04 12:55 53.48261 -55.56573 36518 ft 474 kts 236°
2026-05-04 12:56 53.45241 -55.66409 36514 ft 474 kts 236°
2026-05-04 12:56 53.42212 -55.76232 36549 ft 474 kts 236°
2026-05-04 12:57 53.39165 -55.86068 36517 ft 476 kts 236°
2026-05-04 12:57 53.36108 -55.95902 36505 ft 477 kts 236°
2026-05-04 12:58 53.33056 -56.05679 36506 ft 477 kts 236°
2026-05-04 12:58 53.29975 -56.15512 36504 ft 477 kts 235°
2026-05-04 12:59 53.26886 -56.25326 36524 ft 478 kts 235°
2026-05-04 12:59 53.23780 -56.35157 36499 ft 478 kts 235°
2026-05-04 13:00 53.20665 -56.44977 36494 ft 479 kts 235°
2026-05-04 13:00 53.17550 -56.54760 36497 ft 477 kts 236°
2026-05-04 13:01 53.14430 -56.64515 36493 ft 476 kts 236°
2026-05-04 13:01 53.11305 -56.74250 36475 ft 477 kts 236°
2026-05-04 13:02 53.08463 -56.82030 36471 ft 470 kts 228°
2026-05-04 13:02 53.04570 -56.90736 36478 ft 469 kts 227°
2026-05-04 13:03 53.00666 -56.99433 36468 ft 470 kts 227°
2026-05-04 13:03 52.96768 -57.08153 36466 ft 471 kts 227°
2026-05-04 13:04 52.92859 -57.16906 36462 ft 473 kts 228°
2026-05-04 13:04 52.88937 -57.25667 36458 ft 474 kts 227°
2026-05-04 13:05 52.85007 -57.34417 36448 ft 474 kts 227°
2026-05-04 13:05 52.81061 -57.43168 36449 ft 474 kts 227°
2026-05-04 13:06 52.77112 -57.51895 36439 ft 475 kts 227°
2026-05-04 13:06 52.73145 -57.60629 36445 ft 475 kts 227°
2026-05-04 13:07 52.69174 -57.69344 36431 ft 476 kts 227°
2026-05-04 13:07 52.65219 -57.77996 36424 ft 476 kts 227°
2026-05-04 13:08 52.61232 -57.86689 36446 ft 476 kts 227°
2026-05-04 13:08 52.57235 -57.95372 36430 ft 476 kts 227°
2026-05-04 13:09 52.53223 -58.04060 36405 ft 477 kts 227°
2026-05-04 13:09 52.49210 -58.12718 36403 ft 477 kts 227°
2026-05-04 13:10 52.45185 -58.21374 36456 ft 477 kts 227°
2026-05-04 13:10 52.41142 -58.30036 36409 ft 479 kts 227°
2026-05-04 13:11 52.37088 -58.38693 36388 ft 480 kts 227°
2026-05-04 13:11 52.33019 -58.47355 36388 ft 480 kts 227°
2026-05-04 13:12 52.28942 -58.56006 36390 ft 480 kts 227°
2026-05-04 13:12 52.24849 -58.64658 36385 ft 483 kts 227°
2026-05-04 13:13 52.20727 -58.73339 36629 ft 484 kts 227°
2026-05-04 13:13 52.18669 -58.77666 36917 ft 483 kts 227°
2026-05-04 13:13 52.16613 -58.81983 37196 ft 481 kts 227°
2026-05-04 13:13 52.14558 -58.86287 37305 ft 482 kts 227°
2026-05-04 13:14 52.12494 -58.90602 37349 ft 483 kts 227°
2026-05-04 13:14 52.08365 -58.99214 37353 ft 483 kts 227°
2026-05-04 13:15 52.04229 -59.07813 37345 ft 482 kts 227°
2026-05-04 13:15 52.00088 -59.16391 37341 ft 482 kts 227°
2026-05-04 13:16 51.95946 -59.24941 37344 ft 482 kts 227°
2026-05-04 13:16 51.91791 -59.33492 37340 ft 483 kts 227°
2026-05-04 13:17 51.87651 -59.41984 37332 ft 484 kts 227°
2026-05-04 13:17 51.83470 -59.50529 37319 ft 485 kts 227°
2026-05-04 13:18 51.79280 -59.59068 37301 ft 484 kts 227°
2026-05-04 13:18 51.75063 -59.67632 37328 ft 484 kts 227°
2026-05-04 13:19 51.70861 -59.76136 37314 ft 485 kts 227°
2026-05-04 13:19 51.66680 -59.84569 37309 ft 484 kts 227°
2026-05-04 13:20 51.62473 -59.93029 37303 ft 484 kts 227°
2026-05-04 13:20 51.58257 -60.01476 37306 ft 484 kts 227°
2026-05-04 13:21 51.54032 -60.09913 37289 ft 484 kts 227°
2026-05-04 13:21 51.49807 -60.18327 37285 ft 484 kts 227°
2026-05-04 13:22 51.45573 -60.26728 37284 ft 484 kts 227°
2026-05-04 13:22 51.41333 -60.35115 37309 ft 484 kts 227°
2026-05-04 13:23 51.37087 -60.43485 37290 ft 485 kts 227°
2026-05-04 13:23 51.32827 -60.51852 37286 ft 485 kts 227°
2026-05-04 13:24 51.28562 -60.60208 37295 ft 485 kts 227°
2026-05-04 13:24 51.24296 -60.68537 37287 ft 485 kts 227°
2026-05-04 13:25 51.17877 -60.81018 37286 ft 485 kts 227°
2026-05-04 13:25 51.13592 -60.89314 37279 ft 485 kts 227°
2026-05-04 13:26 51.09294 -60.97611 37275 ft 486 kts 227°
2026-05-04 13:26 51.04992 -61.05888 37290 ft 485 kts 227°
2026-05-04 13:27 51.00688 -61.14143 37273 ft 486 kts 227°
2026-05-04 13:27 50.96374 -61.22389 37271 ft 485 kts 227°
2026-05-04 13:28 50.92082 -61.30569 37265 ft 486 kts 227°
2026-05-04 13:28 50.87756 -61.38785 37260 ft 486 kts 227°
2026-05-04 13:29 50.83418 -61.47000 37258 ft 487 kts 227°
2026-05-04 13:29 50.79067 -61.55212 37251 ft 487 kts 227°
2026-05-04 13:30 50.74709 -61.63411 37254 ft 487 kts 227°
2026-05-04 13:30 50.70346 -61.71595 37258 ft 488 kts 227°
2026-05-04 13:31 50.65969 -61.79777 37254 ft 488 kts 227°
2026-05-04 13:31 50.61587 -61.87944 37246 ft 488 kts 227°
2026-05-04 13:32 50.57212 -61.96074 37267 ft 487 kts 227°
2026-05-04 13:32 50.52829 -62.04189 37273 ft 486 kts 227°
2026-05-04 13:33 50.48444 -62.12285 37272 ft 486 kts 227°
2026-05-04 13:33 50.44056 -62.20361 37261 ft 486 kts 227°
2026-05-04 13:34 50.39664 -62.28418 37259 ft 486 kts 227°
2026-05-04 13:34 50.35265 -62.36462 37279 ft 486 kts 227°
2026-05-04 13:35 50.28698 -62.48427 37276 ft 485 kts 227°
2026-05-04 13:36 50.24297 -62.56414 37276 ft 485 kts 227°
2026-05-04 13:36 50.19890 -62.64388 37280 ft 485 kts 227°
2026-05-04 13:37 50.15478 -62.72345 37283 ft 485 kts 227°
2026-05-04 13:37 50.11057 -62.80294 37289 ft 485 kts 227°
2026-05-04 13:38 50.06631 -62.88229 37307 ft 485 kts 227°
2026-05-04 13:38 50.02202 -62.96143 37339 ft 485 kts 227°
2026-05-04 13:39 49.97763 -63.04052 37324 ft 485 kts 227°
2026-05-04 13:39 49.93323 -63.11939 37334 ft 484 kts 227°
2026-05-04 13:40 49.88889 -63.19791 37344 ft 484 kts 226°
2026-05-04 13:40 49.84446 -63.27634 37353 ft 484 kts 227°
2026-05-04 13:41 49.80006 -63.35447 37347 ft 483 kts 226°
2026-05-04 13:41 49.75564 -63.43243 37349 ft 482 kts 225°
2026-05-04 13:42 49.68911 -63.54877 37373 ft 481 kts 226°
2026-05-04 13:42 49.64474 -63.62604 37377 ft 482 kts 227°
2026-05-04 13:43 49.60019 -63.70338 37387 ft 482 kts 226°
2026-05-04 13:43 49.55556 -63.78067 37397 ft 484 kts 226°
2026-05-04 13:44 49.51072 -63.85804 37399 ft 484 kts 227°
2026-05-04 13:44 49.46594 -63.93513 37406 ft 481 kts 226°
2026-05-04 13:45 49.42137 -64.01163 37405 ft 480 kts 225°
2026-05-04 13:45 49.37686 -64.08777 37415 ft 480 kts 227°
2026-05-04 13:46 49.33216 -64.16402 37416 ft 481 kts 226°
2026-05-04 13:46 49.28738 -64.24019 37424 ft 482 kts 226°
2026-05-04 13:47 49.24274 -64.31588 37426 ft 482 kts 227°
2026-05-04 13:47 49.19782 -64.39185 37428 ft 481 kts 226°
2026-05-04 13:48 49.15295 -64.46751 37423 ft 480 kts 227°
2026-05-04 13:48 49.10810 -64.54292 37433 ft 478 kts 226°
2026-05-04 13:49 49.06347 -64.61773 37436 ft 477 kts 226°
2026-05-04 13:49 49.01876 -64.69245 37451 ft 477 kts 226°
2026-05-04 13:50 48.98149 -64.75459 37451 ft 478 kts 227°
2026-05-04 13:50 48.93635 -64.82965 37457 ft 477 kts 227°
2026-05-04 13:51 48.89196 -64.90324 37461 ft 475 kts 227°
2026-05-04 13:51 48.84729 -64.97709 37458 ft 474 kts 227°
2026-05-04 13:52 48.78031 -65.08744 37468 ft 474 kts 227°
2026-05-04 13:53 48.73554 -65.16094 37470 ft 475 kts 227°
2026-05-04 13:53 48.69071 -65.23432 37477 ft 475 kts 227°
2026-05-04 13:54 48.62338 -65.34414 37481 ft 475 kts 227°
2026-05-04 13:55 48.55609 -65.45346 37494 ft 472 kts 227°
2026-05-04 13:55 48.48892 -65.56212 37505 ft 472 kts 227°
2026-05-04 13:56 48.44405 -65.63444 37502 ft 472 kts 227°
2026-05-04 13:57 48.37662 -65.74275 37519 ft 473 kts 227°
2026-05-04 13:58 48.28673 -65.88645 37543 ft 473 kts 227°
2026-05-04 13:58 48.21908 -65.99406 37559 ft 471 kts 227°
2026-05-04 13:59 48.17413 -66.06534 37557 ft 470 kts 227°
2026-05-04 14:00 48.10671 -66.17188 37575 ft 470 kts 227°
2026-05-04 14:00 48.03940 -66.27779 37570 ft 469 kts 227°
2026-05-04 14:01 47.99438 -66.34840 37588 ft 469 kts 227°
2026-05-04 14:02 47.92690 -66.45388 37586 ft 469 kts 226°
2026-05-04 14:02 47.88207 -66.52372 37587 ft 463 kts 227°
2026-05-04 14:03 47.83767 -66.59269 37619 ft 463 kts 226°
2026-05-04 14:03 47.79270 -66.66238 37629 ft 469 kts 226°
2026-05-04 14:04 47.72438 -66.76791 37632 ft 474 kts 226°
2026-05-04 14:04 47.67862 -66.83834 37630 ft 473 kts 226°
2026-05-04 14:05 47.61061 -66.94267 37628 ft 466 kts 226°
2026-05-04 14:06 47.56559 -67.01151 37653 ft 467 kts 226°
2026-05-04 14:06 47.52010 -67.08088 37664 ft 471 kts 226°
2026-05-04 14:07 47.47423 -67.15066 37665 ft 474 kts 226°
2026-05-04 14:07 47.42859 -67.21990 37659 ft 470 kts 226°
2026-05-04 14:08 47.38325 -67.28851 37667 ft 465 kts 226°
2026-05-04 14:08 47.33641 -67.35392 37679 ft 463 kts 223°
2026-05-04 14:09 47.26442 -67.44938 37690 ft 465 kts 223°
2026-05-04 14:10 47.19214 -67.54537 37696 ft 468 kts 223°
2026-05-04 14:10 47.14372 -67.60964 37701 ft 469 kts 223°
2026-05-04 14:11 47.09519 -67.67390 37714 ft 471 kts 223°
2026-05-04 14:11 47.02210 -67.77033 37706 ft 470 kts 223°
2026-05-04 14:12 46.97351 -67.83425 37708 ft 469 kts 223°
2026-05-04 14:13 46.90071 -67.92970 37699 ft 467 kts 223°
2026-05-04 14:13 46.85234 -67.99292 37698 ft 465 kts 223°
2026-05-04 14:14 46.80414 -68.05579 37699 ft 464 kts 223°
2026-05-04 14:14 46.74008 -68.16036 37743 ft 461 kts 234°
2026-05-04 14:15 46.66419 -68.31133 37740 ft 463 kts 234°
2026-05-04 14:16 46.60688 -68.42378 37741 ft 463 kts 234°
2026-05-04 14:17 46.54915 -68.53644 37743 ft 463 kts 233°
2026-05-04 14:18 46.49132 -68.64889 37734 ft 463 kts 233°
2026-05-04 14:19 46.41405 -68.79844 37740 ft 463 kts 233°
2026-05-04 14:19 46.37533 -68.87309 37756 ft 463 kts 233°
2026-05-04 14:20 46.33660 -68.94755 37756 ft 463 kts 233°
2026-05-04 14:20 46.29779 -69.02197 37756 ft 463 kts 233°
2026-05-04 14:21 46.23956 -69.13326 37760 ft 462 kts 233°
2026-05-04 14:21 46.20069 -69.20730 37760 ft 462 kts 233°
2026-05-04 14:22 46.16181 -69.28116 37758 ft 462 kts 233°
2026-05-04 14:22 46.12295 -69.35480 37759 ft 462 kts 233°
2026-05-04 14:23 46.06452 -69.46513 37755 ft 461 kts 233°
2026-05-04 14:24 46.02558 -69.53843 37751 ft 461 kts 233°
2026-05-04 14:24 45.98683 -69.61120 37751 ft 461 kts 233°
2026-05-04 14:25 45.94780 -69.68429 37748 ft 461 kts 233°
2026-05-04 14:25 45.88918 -69.79370 37750 ft 460 kts 233°
2026-05-04 14:26 45.85010 -69.86641 37750 ft 460 kts 233°
2026-05-04 14:26 45.81093 -69.93910 37759 ft 460 kts 233°
2026-05-04 14:27 45.77173 -70.01165 37751 ft 460 kts 233°
2026-05-04 14:27 45.73260 -70.08390 37748 ft 459 kts 233°
2026-05-04 14:28 45.69343 -70.15602 37752 ft 458 kts 233°
2026-05-04 14:28 45.65429 -70.22792 37751 ft 458 kts 233°
2026-05-04 14:29 45.57599 -70.37118 37759 ft 457 kts 233°
2026-05-04 14:30 45.53679 -70.44265 37759 ft 457 kts 233°
2026-05-04 14:31 45.47796 -70.54954 37761 ft 457 kts 234°
2026-05-04 14:32 45.39935 -70.69176 37770 ft 457 kts 233°
2026-05-04 14:32 45.35994 -70.76278 37768 ft 457 kts 233°
2026-05-04 14:33 45.32057 -70.83357 37758 ft 456 kts 233°
2026-05-04 14:33 45.28118 -70.90420 37769 ft 455 kts 233°
2026-05-04 14:34 45.24180 -70.97464 37765 ft 455 kts 233°
2026-05-04 14:34 45.20247 -71.04482 37770 ft 455 kts 233°
2026-05-04 14:35 45.16307 -71.11496 37780 ft 455 kts 233°
2026-05-04 14:35 45.12388 -71.18455 37779 ft 455 kts 233°
2026-05-04 14:36 45.08439 -71.25450 37782 ft 455 kts 233°
2026-05-04 14:36 45.04479 -71.32447 37783 ft 456 kts 233°
2026-05-04 14:37 45.00511 -71.39440 37791 ft 456 kts 233°
2026-05-04 14:37 44.96529 -71.46442 37772 ft 457 kts 233°
2026-05-04 14:38 44.92543 -71.53435 37770 ft 458 kts 233°
2026-05-04 14:38 44.89192 -71.59299 37778 ft 458 kts 233°
2026-05-04 14:39 44.85193 -71.66284 37786 ft 457 kts 233°
2026-05-04 14:39 44.81272 -71.73314 37791 ft 455 kts 238°
2026-05-04 14:40 44.75943 -71.84368 37791 ft 454 kts 238°
2026-05-04 14:40 44.72418 -71.91665 37802 ft 454 kts 238°
2026-05-04 14:41 44.68851 -71.99003 37801 ft 454 kts 238°
2026-05-04 14:42 44.61695 -72.13643 37817 ft 455 kts 238°
2026-05-04 14:42 44.58103 -72.20962 37792 ft 455 kts 238°
2026-05-04 14:43 44.54506 -72.28275 37781 ft 455 kts 238°
2026-05-04 14:43 44.50912 -72.35564 37800 ft 455 kts 238°
2026-05-04 14:44 44.47311 -72.42846 37798 ft 454 kts 238°
2026-05-04 14:44 44.43715 -72.50101 37814 ft 454 kts 238°
2026-05-04 14:45 44.40107 -72.57362 37796 ft 454 kts 238°
2026-05-04 14:45 44.36496 -72.64613 37807 ft 454 kts 238°
2026-05-04 14:46 44.32875 -72.71865 37957 ft 457 kts 238°
2026-05-04 14:46 44.31057 -72.75499 38232 ft 456 kts 237°
2026-05-04 14:46 44.29242 -72.79122 38514 ft 455 kts 237°
2026-05-04 14:47 44.27429 -72.82736 38723 ft 454 kts 237°
2026-05-04 14:47 44.25619 -72.86340 38927 ft 453 kts 237°
2026-05-04 14:47 44.23813 -72.89932 39098 ft 453 kts 237°
2026-05-04 14:47 44.22001 -72.93532 39264 ft 453 kts 237°
2026-05-04 14:48 44.20188 -72.97130 39433 ft 453 kts 237°
2026-05-04 14:48 44.18397 -73.00679 39585 ft 454 kts 237°
2026-05-04 14:48 44.16557 -73.04321 39701 ft 454 kts 237°
2026-05-04 14:48 44.14739 -73.07913 39752 ft 455 kts 237°
2026-05-04 14:49 44.11085 -73.15123 39792 ft 455 kts 237°
2026-05-04 14:49 44.07440 -73.22295 39803 ft 453 kts 237°
2026-05-04 14:50 44.03807 -73.29426 39817 ft 452 kts 237°
2026-05-04 14:50 44.00166 -73.36557 39821 ft 453 kts 237°
2026-05-04 14:51 43.96543 -73.43637 39802 ft 452 kts 237°
2026-05-04 14:51 43.92906 -73.50725 39824 ft 450 kts 237°
2026-05-04 14:52 43.89269 -73.57797 39814 ft 450 kts 237°
2026-05-04 14:52 43.85631 -73.64851 39845 ft 449 kts 237°
2026-05-04 14:53 43.81998 -73.71882 39822 ft 449 kts 237°
2026-05-04 14:53 43.78360 -73.78905 39842 ft 448 kts 237°
2026-05-04 14:54 43.74723 -73.85907 39831 ft 448 kts 237°
2026-05-04 14:54 43.71085 -73.92903 39837 ft 448 kts 237°
2026-05-04 14:55 43.67407 -73.99861 39822 ft 449 kts 235°
2026-05-04 14:55 43.63537 -74.06624 39842 ft 449 kts 234°
2026-05-04 14:56 43.59616 -74.13358 39841 ft 450 kts 234°
2026-05-04 14:56 43.55702 -74.20122 39849 ft 451 kts 234°
2026-05-04 14:57 43.51791 -74.26907 39833 ft 452 kts 234°
2026-05-04 14:57 43.47882 -74.33687 39849 ft 452 kts 234°
2026-05-04 14:58 43.43959 -74.40474 39852 ft 453 kts 234°
2026-05-04 14:58 43.40028 -74.47259 39854 ft 454 kts 234°
2026-05-04 14:59 43.36081 -74.54054 39844 ft 455 kts 234°
2026-05-04 15:00 43.30181 -74.64180 39863 ft 454 kts 234°
2026-05-04 15:00 43.26235 -74.70934 39870 ft 453 kts 234°
2026-05-04 15:01 43.20312 -74.81044 39857 ft 453 kts 234°
2026-05-04 15:01 43.16369 -74.87754 39860 ft 452 kts 234°
2026-05-04 15:02 43.12427 -74.94448 39871 ft 451 kts 234°
2026-05-04 15:02 43.08485 -75.01127 39863 ft 451 kts 234°
2026-05-04 15:03 43.04547 -75.07782 39845 ft 451 kts 234°
2026-05-04 15:03 43.00602 -75.14435 39865 ft 450 kts 234°
2026-05-04 15:04 42.96658 -75.21072 39870 ft 450 kts 234°
2026-05-04 15:04 42.92704 -75.27711 39867 ft 451 kts 233°
2026-05-04 15:05 42.88742 -75.34348 39871 ft 451 kts 233°
2026-05-04 15:05 42.84775 -75.40978 39872 ft 451 kts 234°
2026-05-04 15:06 42.80808 -75.47594 39864 ft 451 kts 234°
2026-05-04 15:07 42.74838 -75.57521 39868 ft 452 kts 233°
2026-05-04 15:07 42.70854 -75.64129 39855 ft 452 kts 233°
2026-05-04 15:08 42.66864 -75.70731 39868 ft 452 kts 233°
2026-05-04 15:08 42.62870 -75.77326 39876 ft 452 kts 233°
2026-05-04 15:09 42.58896 -75.83873 39873 ft 452 kts 233°
2026-05-04 15:09 42.54881 -75.90453 39855 ft 453 kts 233°
2026-05-04 15:10 42.48712 -76.00132 39877 ft 452 kts 232°
2026-05-04 15:11 42.42526 -76.09764 39882 ft 451 kts 232°
2026-05-04 15:11 42.38412 -76.16182 39869 ft 451 kts 232°
2026-05-04 15:12 42.34301 -76.22585 39876 ft 451 kts 232°
2026-05-04 15:12 42.30182 -76.28988 39882 ft 451 kts 232°
2026-05-04 15:13 42.26059 -76.35380 39888 ft 451 kts 232°
2026-05-04 15:13 42.21929 -76.41771 39871 ft 452 kts 232°
2026-05-04 15:14 42.17801 -76.48144 39881 ft 451 kts 232°
2026-05-04 15:14 42.13667 -76.54513 39877 ft 451 kts 232°
2026-05-04 15:15 42.09530 -76.60870 39884 ft 451 kts 232°
2026-05-04 15:15 42.05397 -76.67214 39885 ft 451 kts 232°
2026-05-04 15:16 41.99177 -76.76729 39891 ft 451 kts 232°
2026-05-04 15:17 41.92952 -76.86223 39893 ft 452 kts 232°
2026-05-04 15:17 41.86713 -76.95646 39870 ft 453 kts 231°
2026-05-04 15:18 41.82320 -77.01704 39893 ft 454 kts 229°
2026-05-04 15:19 41.75650 -77.10703 39907 ft 453 kts 229°
2026-05-04 15:19 41.69026 -77.19730 39914 ft 453 kts 230°
2026-05-04 15:20 41.64616 -77.25749 39917 ft 453 kts 230°
2026-05-04 15:20 41.60203 -77.31760 39917 ft 453 kts 230°
2026-05-04 15:21 41.55791 -77.37757 39927 ft 453 kts 230°
2026-05-04 15:22 41.49157 -77.46747 39919 ft 453 kts 230°
2026-05-04 15:22 41.42516 -77.55718 39930 ft 453 kts 230°
2026-05-04 15:23 41.38081 -77.61692 39931 ft 453 kts 230°
2026-05-04 15:23 41.33649 -77.67652 39935 ft 453 kts 230°
2026-05-04 15:24 41.24771 -77.79554 39934 ft 452 kts 230°
2026-05-04 15:25 41.21088 -77.84478 39939 ft 453 kts 230°
2026-05-04 15:26 41.14426 -77.93364 39953 ft 453 kts 230°
2026-05-04 15:26 41.07745 -78.02246 39944 ft 454 kts 230°
2026-05-04 15:27 41.01047 -78.11125 39937 ft 455 kts 230°
2026-05-04 15:28 40.94318 -78.20015 39923 ft 456 kts 230°
2026-05-04 15:29 40.87578 -78.28894 39935 ft 457 kts 230°
2026-05-04 15:30 40.71813 -78.49555 39944 ft 457 kts 230°
2026-05-04 15:31 40.65025 -78.58408 39954 ft 458 kts 230°
2026-05-04 15:32 40.53684 -78.73138 39942 ft 458 kts 229°
2026-05-04 15:34 40.42312 -78.87833 39957 ft 459 kts 229°
2026-05-04 15:34 40.35481 -78.96627 39953 ft 458 kts 229°
2026-05-04 15:35 40.28652 -79.05389 39957 ft 458 kts 229°
2026-05-04 15:36 40.21817 -79.14134 39964 ft 458 kts 229°
2026-05-04 15:36 40.17252 -79.19962 39964 ft 459 kts 229°
2026-05-04 15:37 40.12684 -79.25780 39960 ft 459 kts 229°
2026-05-04 15:37 40.08109 -79.31597 39962 ft 459 kts 229°
2026-05-04 15:38 40.03529 -79.37409 39966 ft 459 kts 229°
2026-05-04 15:38 39.98966 -79.43223 39942 ft 458 kts 230°
2026-05-04 15:39 39.94606 -79.49254 39962 ft 456 kts 232°
2026-05-04 15:40 39.88146 -79.58360 39970 ft 457 kts 231°
2026-05-04 15:40 39.83798 -79.64400 39971 ft 457 kts 231°
2026-05-04 15:41 39.79434 -79.70426 39957 ft 457 kts 231°
2026-05-04 15:41 39.75073 -79.76434 39980 ft 457 kts 231°
2026-05-04 15:42 39.70709 -79.82436 39974 ft 456 kts 231°
2026-05-04 15:42 39.66349 -79.88422 39988 ft 456 kts 231°
2026-05-04 15:43 39.61995 -79.94390 39994 ft 456 kts 231°
2026-05-04 15:43 39.57634 -80.00355 39976 ft 455 kts 231°
2026-05-04 15:44 39.53280 -80.06299 39979 ft 454 kts 231°
2026-05-04 15:44 39.49018 -80.12305 39977 ft 452 kts 232°
2026-05-04 15:45 39.44878 -80.18427 39959 ft 452 kts 233°
2026-05-04 15:45 39.40739 -80.24532 39955 ft 452 kts 233°
2026-05-04 15:46 39.36578 -80.30612 39984 ft 451 kts 232°
2026-05-04 15:46 39.32417 -80.36663 39986 ft 450 kts 232°
2026-05-04 15:47 39.28262 -80.42689 39980 ft 449 kts 232°
2026-05-04 15:47 39.24105 -80.48710 39980 ft 449 kts 232°
2026-05-04 15:48 39.19945 -80.54725 39961 ft 449 kts 232°
2026-05-04 15:48 39.13739 -80.63676 39972 ft 448 kts 232°
2026-05-04 15:49 39.09578 -80.69664 39978 ft 449 kts 232°
2026-05-04 15:49 39.05412 -80.75648 39982 ft 449 kts 232°
2026-05-04 15:50 39.01245 -80.81621 39979 ft 449 kts 232°
2026-05-04 15:50 38.96915 -80.87432 39966 ft 451 kts 230°
2026-05-04 15:51 38.92472 -80.93118 39972 ft 451 kts 229°
2026-05-04 15:51 38.88033 -80.98814 39976 ft 451 kts 230°
2026-05-04 15:52 38.83615 -81.04522 39979 ft 451 kts 230°
2026-05-04 15:52 38.79196 -81.10243 39979 ft 451 kts 230°
2026-05-04 15:53 38.74776 -81.15957 39975 ft 451 kts 230°
2026-05-04 15:53 38.70359 -81.21656 39979 ft 451 kts 230°
2026-05-04 15:54 38.65931 -81.27356 39988 ft 451 kts 230°
2026-05-04 15:54 38.61504 -81.33044 39998 ft 451 kts 230°
2026-05-04 15:55 38.57075 -81.38724 39981 ft 451 kts 230°
2026-05-04 15:55 38.52642 -81.44399 39998 ft 451 kts 230°
2026-05-04 15:56 38.48207 -81.50067 39998 ft 451 kts 230°
2026-05-04 15:56 38.43773 -81.55723 40006 ft 451 kts 230°
2026-05-04 15:57 38.39328 -81.61381 40025 ft 451 kts 230°
2026-05-04 15:57 38.34911 -81.66994 40004 ft 451 kts 230°
2026-05-04 15:58 38.30468 -81.72630 40018 ft 451 kts 230°
2026-05-04 15:58 38.26015 -81.78268 40023 ft 451 kts 230°
2026-05-04 15:59 38.21557 -81.83904 40017 ft 452 kts 230°
2026-05-04 15:59 38.17097 -81.89530 40023 ft 452 kts 230°
2026-05-04 16:00 38.12628 -81.95155 40021 ft 452 kts 230°
2026-05-04 16:00 38.08157 -82.00775 40028 ft 452 kts 230°
2026-05-04 16:01 38.03687 -82.06385 40023 ft 452 kts 230°
2026-05-04 16:01 37.99207 -82.11995 40035 ft 452 kts 230°
2026-05-04 16:02 37.94724 -82.17599 40035 ft 452 kts 230°
2026-05-04 16:03 37.88007 -82.25977 40042 ft 452 kts 230°
2026-05-04 16:03 37.83559 -82.31513 40048 ft 451 kts 230°
2026-05-04 16:04 37.79085 -82.37070 40049 ft 451 kts 230°
2026-05-04 16:04 37.72376 -82.45385 40061 ft 449 kts 230°
2026-05-04 16:05 37.67931 -82.50881 40053 ft 446 kts 230°
2026-05-04 16:06 37.61316 -82.59043 40049 ft 441 kts 230°
2026-05-04 16:07 37.52546 -82.69835 40059 ft 441 kts 230°
2026-05-04 16:08 37.43763 -82.80601 40053 ft 440 kts 230°
2026-05-04 16:09 37.32792 -82.94003 40063 ft 440 kts 230°
2026-05-04 16:10 37.23951 -83.04594 40052 ft 443 kts 226°
2026-05-04 16:11 37.14522 -83.14524 40081 ft 442 kts 226°
2026-05-04 16:12 37.00381 -83.29413 40080 ft 443 kts 226°
2026-05-04 16:13 36.90941 -83.39316 40086 ft 443 kts 226°
2026-05-04 16:14 36.82282 -83.48379 40077 ft 444 kts 226°
2026-05-04 16:16 36.70409 -83.60755 40093 ft 446 kts 226°
2026-05-04 16:17 36.58475 -83.73144 40083 ft 449 kts 225°
2026-05-04 16:18 36.48579 -83.82687 40079 ft 453 kts 221°
2026-05-04 16:19 36.35650 -83.93856 40064 ft 453 kts 221°
2026-05-04 16:20 36.22764 -84.05012 40067 ft 451 kts 221°
2026-05-04 16:22 36.09907 -84.16103 40062 ft 450 kts 221°
2026-05-04 16:23 35.94483 -84.29345 40089 ft 450 kts 221°
2026-05-04 16:25 35.79056 -84.42528 40099 ft 451 kts 221°
2026-05-04 16:26 35.60953 -84.57915 40078 ft 452 kts 221°
2026-05-04 16:28 35.48040 -84.68839 40105 ft 451 kts 221°
2026-05-04 16:29 35.29969 -84.84053 40074 ft 450 kts 221°
2026-05-04 16:31 35.17063 -84.94868 40081 ft 450 kts 220°
2026-05-04 16:32 35.01556 -85.07807 40097 ft 450 kts 221°
2026-05-04 16:33 34.91195 -85.16419 40106 ft 451 kts 220°
2026-05-04 16:34 34.83414 -85.22869 40094 ft 451 kts 221°
2026-05-04 16:35 34.76289 -85.30099 40099 ft 440 kts 233°
2026-05-04 16:35 34.70510 -85.38670 40103 ft 437 kts 237°
2026-05-04 16:36 34.64769 -85.47292 40060 ft 438 kts 237°
2026-05-04 16:37 34.59009 -85.55866 40103 ft 437 kts 237°
2026-05-04 16:38 34.51349 -85.67228 40103 ft 436 kts 236°
2026-05-04 16:39 34.41726 -85.81448 40096 ft 436 kts 236°
2026-05-04 16:40 34.34037 -85.92769 40098 ft 435 kts 237°
2026-05-04 16:41 34.24422 -86.06881 40104 ft 435 kts 237°
2026-05-04 16:43 34.14778 -86.20974 40066 ft 435 kts 236°
2026-05-04 16:43 34.08987 -86.29411 40110 ft 435 kts 236°
2026-05-04 16:45 33.97370 -86.46278 40110 ft 437 kts 236°
2026-05-04 16:46 33.87675 -86.60288 40098 ft 435 kts 237°
2026-05-04 16:47 33.79927 -86.71453 40104 ft 435 kts 237°
2026-05-04 16:48 33.72167 -86.82599 40139 ft 435 kts 236°
2026-05-04 16:49 33.68602 -86.88382 40122 ft 425 kts 248°
2026-05-04 16:49 33.66506 -86.94875 40101 ft 417 kts 260°
2026-05-04 16:50 33.64941 -87.08554 40075 ft 414 kts 266°
2026-05-04 16:51 33.63849 -87.18823 40052 ft 413 kts 266°
2026-05-04 16:52 33.62337 -87.32498 40058 ft 413 kts 266°
2026-05-04 16:53 33.61191 -87.42739 40056 ft 412 kts 266°
2026-05-04 16:54 33.59655 -87.56348 40055 ft 411 kts 266°
2026-05-04 16:55 33.57329 -87.76714 40048 ft 410 kts 266°
2026-05-04 16:56 33.55370 -87.93631 40054 ft 410 kts 266°
2026-05-04 16:57 33.54183 -88.03783 40055 ft 410 kts 266°
2026-05-04 16:58 33.52593 -88.17270 40054 ft 410 kts 266°
2026-05-04 17:00 33.50173 -88.37544 40046 ft 409 kts 266°
2026-05-04 17:01 33.48447 -88.54401 40078 ft 403 kts 274°
2026-05-04 17:02 33.48416 -88.66684 40087 ft 403 kts 274°
2026-05-04 17:03 33.48353 -88.76746 40062 ft 403 kts 274°
2026-05-04 17:03 33.48279 -88.86819 40045 ft 403 kts 274°
2026-05-04 17:04 33.48169 -89.00194 40059 ft 401 kts 274°
2026-05-04 17:05 33.48045 -89.13519 40083 ft 400 kts 274°
2026-05-04 17:06 33.47944 -89.23505 40080 ft 399 kts 274°
2026-05-04 17:07 33.47846 -89.32349 40074 ft 398 kts 275°
2026-05-04 17:07 33.47756 -89.40101 40073 ft 398 kts 275°
2026-05-04 17:08 33.47634 -89.50030 40070 ft 397 kts 275°
2026-05-04 17:09 33.47548 -89.56607 40067 ft 397 kts 275°
2026-05-04 17:09 33.47459 -89.63227 40069 ft 397 kts 275°
2026-05-04 17:10 33.47219 -89.79775 40064 ft 398 kts 274°
2026-05-04 17:11 33.47117 -89.86393 40060 ft 398 kts 274°
2026-05-04 17:12 33.46957 -89.96338 40058 ft 398 kts 274°
2026-05-04 17:13 33.46673 -90.12892 40060 ft 397 kts 275°
2026-05-04 17:14 33.45976 -90.26117 40072 ft 405 kts 265°
2026-05-04 17:15 33.43452 -90.35884 40069 ft 416 kts 256°
2026-05-04 17:16 33.38720 -90.48458 40061 ft 414 kts 255°
2026-05-04 17:17 33.34019 -90.61012 40067 ft 413 kts 255°
2026-05-04 17:18 33.29336 -90.73542 40066 ft 413 kts 255°
2026-05-04 17:19 33.24637 -90.86065 40071 ft 413 kts 255°
2026-05-04 17:20 33.19922 -90.98585 40066 ft 413 kts 255°
2026-05-04 17:20 33.16377 -91.07966 40067 ft 413 kts 255°
2026-05-04 17:21 33.11638 -91.20461 40066 ft 413 kts 256°
2026-05-04 17:22 33.09279 -91.26669 40067 ft 414 kts 256°
2026-05-04 17:23 33.04513 -91.39172 40067 ft 415 kts 256°
2026-05-04 17:24 33.00926 -91.48549 40071 ft 415 kts 256°
2026-05-04 17:25 32.96136 -91.61029 40068 ft 413 kts 256°
2026-05-04 17:26 32.91355 -91.73444 40067 ft 412 kts 256°
2026-05-04 17:27 32.85367 -91.88931 40083 ft 412 kts 256°
2026-05-04 17:28 32.80565 -92.01300 40077 ft 412 kts 256°
2026-05-04 17:29 32.73339 -92.19830 40072 ft 413 kts 256°
2026-05-04 17:31 32.67277 -92.35293 40057 ft 413 kts 256°
2026-05-04 17:32 32.61211 -92.50700 40067 ft 412 kts 256°
2026-05-04 17:33 32.56350 -92.63000 40056 ft 412 kts 256°
2026-05-04 17:34 32.51474 -92.75292 40062 ft 412 kts 256°
2026-05-04 17:35 32.45432 -92.90632 40050 ft 404 kts 261°
2026-05-04 17:35 32.44799 -92.93793 40055 ft 386 kts 273°
2026-05-04 17:36 32.44612 -92.96935 40068 ft 384 kts 274°
2026-05-04 17:36 32.44181 -93.03270 40061 ft 388 kts 273°
2026-05-04 17:37 32.43703 -93.09639 40042 ft 390 kts 272°
2026-05-04 17:37 32.43212 -93.16001 40048 ft 391 kts 272°
2026-05-04 17:38 32.42711 -93.22420 40052 ft 392 kts 272°
2026-05-04 17:38 32.42206 -93.28861 40050 ft 393 kts 272°
2026-05-04 17:39 32.41441 -93.38530 40046 ft 393 kts 272°
2026-05-04 17:39 32.40929 -93.44959 40044 ft 392 kts 272°
2026-05-04 17:40 32.40414 -93.51384 40043 ft 392 kts 272°
2026-05-04 17:40 32.39896 -93.57795 40045 ft 391 kts 272°
2026-05-04 17:41 32.39377 -93.64188 40046 ft 390 kts 272°
2026-05-04 17:41 32.38856 -93.70579 40045 ft 390 kts 272°
2026-05-04 17:42 32.38332 -93.76957 40055 ft 390 kts 272°
2026-05-04 17:42 32.37804 -93.83335 40042 ft 389 kts 272°
2026-05-04 17:43 32.37274 -93.89699 40051 ft 388 kts 272°
2026-05-04 17:43 32.36743 -93.96055 40047 ft 388 kts 272°
2026-05-04 17:44 32.36208 -94.02400 40049 ft 388 kts 272°
2026-05-04 17:44 32.35670 -94.08752 40045 ft 388 kts 272°
2026-05-04 17:45 32.35128 -94.15105 40028 ft 388 kts 272°
2026-05-04 17:45 32.34584 -94.21451 40014 ft 388 kts 272°
2026-05-04 17:46 32.34036 -94.27795 40024 ft 388 kts 272°
2026-05-04 17:46 32.33490 -94.34095 40024 ft 388 kts 272°
2026-05-04 17:47 32.32933 -94.40473 40023 ft 388 kts 272°
2026-05-04 17:47 32.32380 -94.46773 40021 ft 388 kts 272°
2026-05-04 17:48 32.31820 -94.53110 40024 ft 388 kts 272°
2026-05-04 17:48 32.31256 -94.59455 39999 ft 388 kts 271°
2026-05-04 17:49 32.30690 -94.65790 40009 ft 388 kts 271°
2026-05-04 17:49 32.30120 -94.72124 40032 ft 388 kts 271°
2026-05-04 17:50 32.29548 -94.78468 40040 ft 388 kts 271°
2026-05-04 17:50 32.28972 -94.84805 40038 ft 388 kts 271°
2026-05-04 17:51 32.28392 -94.91146 40032 ft 388 kts 271°
2026-05-04 17:51 32.27810 -94.97486 40009 ft 388 kts 271°
2026-05-04 17:52 32.27310 -95.02751 40017 ft 388 kts 270°
2026-05-04 17:52 32.26628 -95.09091 40020 ft 389 kts 270°
2026-05-04 17:53 32.25941 -95.15428 40011 ft 389 kts 270°
2026-05-04 17:53 32.25261 -95.21773 40002 ft 389 kts 271°
2026-05-04 17:54 32.25195 -95.28068 39992 ft 381 kts 278°
2026-05-04 17:54 32.25441 -95.34321 39981 ft 382 kts 278°
2026-05-04 17:55 32.25650 -95.40590 39997 ft 382 kts 277°
2026-05-04 17:55 32.25816 -95.46768 39653 ft 372 kts 277°
2026-05-04 17:56 32.25892 -95.49810 39182 ft 369 kts 278°
2026-05-04 17:56 32.25968 -95.52839 38565 ft 369 kts 278°
2026-05-04 17:56 32.26044 -95.55873 37821 ft 370 kts 278°
2026-05-04 17:56 32.26120 -95.58914 37106 ft 370 kts 278°
2026-05-04 17:57 32.26194 -95.61962 36391 ft 372 kts 278°
2026-05-04 17:57 32.26267 -95.65015 35654 ft 373 kts 277°
2026-05-04 17:57 32.26341 -95.68098 34849 ft 377 kts 277°
2026-05-04 17:57 32.26415 -95.71208 34134 ft 379 kts 277°
2026-05-04 17:58 32.26486 -95.74319 33419 ft 379 kts 277°
2026-05-04 17:58 32.26554 -95.77422 32767 ft 377 kts 277°
2026-05-04 17:58 32.26621 -95.80511 32140 ft 375 kts 277°
2026-05-04 17:58 32.26687 -95.83577 31541 ft 373 kts 277°
2026-05-04 17:59 32.26753 -95.86635 30948 ft 371 kts 277°
2026-05-04 17:59 32.26819 -95.89678 30362 ft 370 kts 277°
2026-05-04 17:59 32.26942 -95.95643 29469 ft 359 kts 277°
2026-05-04 18:00 32.27008 -95.98595 28946 ft 361 kts 277°
2026-05-04 18:00 32.27076 -96.01562 28423 ft 364 kts 276°
2026-05-04 18:00 32.27142 -96.04555 27882 ft 364 kts 276°
2026-05-04 18:00 32.27206 -96.07544 27363 ft 363 kts 276°
2026-05-04 18:01 32.27268 -96.10525 26836 ft 363 kts 276°
2026-05-04 18:01 32.27330 -96.13502 26316 ft 362 kts 275°
2026-05-04 18:01 32.27391 -96.16475 25808 ft 362 kts 275°
2026-05-04 18:02 32.27512 -96.22416 24781 ft 362 kts 275°
2026-05-04 18:02 32.27571 -96.25399 24250 ft 364 kts 275°
2026-05-04 18:02 32.27636 -96.28387 23723 ft 361 kts 276°
2026-05-04 18:02 32.28134 -96.31254 23141 ft 357 kts 291°
2026-05-04 18:03 32.29216 -96.33895 22608 ft 358 kts 300°
2026-05-04 18:03 32.30737 -96.36225 22069 ft 360 kts 311°
2026-05-04 18:03 32.32536 -96.38273 21597 ft 359 kts 313°
2026-05-04 18:03 32.34352 -96.40297 21084 ft 358 kts 313°
2026-05-04 18:04 32.36152 -96.42312 20575 ft 354 kts 313°
2026-05-04 18:04 32.37919 -96.44310 20086 ft 350 kts 313°
2026-05-04 18:04 32.41402 -96.48291 19116 ft 346 kts 313°
2026-05-04 18:05 32.43098 -96.50242 18642 ft 344 kts 313°
2026-05-04 18:05 32.44810 -96.52214 18144 ft 343 kts 313°
2026-05-04 18:05 32.46514 -96.54178 17631 ft 341 kts 313°
2026-05-04 18:05 32.48205 -96.56127 17166 ft 338 kts 313°
2026-05-04 18:06 32.51534 -96.59947 16299 ft 331 kts 313°
2026-05-04 18:06 32.53179 -96.61829 15868 ft 328 kts 313°
2026-05-04 18:06 32.54812 -96.63699 15454 ft 325 kts 313°
2026-05-04 18:07 32.56429 -96.65553 15049 ft 322 kts 313°
2026-05-04 18:07 32.58031 -96.67372 14744 ft 316 kts 314°
2026-05-04 18:07 32.59617 -96.69155 14498 ft 309 kts 314°
2026-05-04 18:07 32.61161 -96.70892 14193 ft 304 kts 314°
2026-05-04 18:08 32.62690 -96.72614 13808 ft 303 kts 314°
2026-05-04 18:08 32.64216 -96.74335 13345 ft 303 kts 314°
2026-05-04 18:08 32.65744 -96.76058 12867 ft 303 kts 313°
2026-05-04 18:08 32.67266 -96.77781 12428 ft 303 kts 313°
2026-05-04 18:09 32.70306 -96.81231 11552 ft 302 kts 313°
2026-05-04 18:09 32.73323 -96.84658 10740 ft 300 kts 312°
2026-05-04 18:10 32.74843 -96.86386 10218 ft 304 kts 312°
2026-05-04 18:10 32.76366 -96.88117 9866 ft 302 kts 313°
2026-05-04 18:10 32.77883 -96.89835 9424 ft 299 kts 313°
2026-05-04 18:10 32.79627 -96.91161 8765 ft 309 kts 337°
2026-05-04 18:11 32.81769 -96.91563 8266 ft 314 kts 355°
2026-05-04 18:11 32.83973 -96.91535 7718 ft 318 kts 356°
2026-05-04 18:11 32.86178 -96.91495 7374 ft 315 kts 356°
2026-05-04 18:11 32.88365 -96.91459 7012 ft 314 kts 356°
2026-05-04 18:12 32.90543 -96.91433 6668 ft 313 kts 355°
2026-05-04 18:12 32.92721 -96.91415 6282 ft 313 kts 355°
2026-05-04 18:12 32.94894 -96.91397 5891 ft 311 kts 355°
2026-05-04 18:12 32.97068 -96.91386 5501 ft 312 kts 356°
2026-05-04 18:13 32.99238 -96.91372 5098 ft 313 kts 356°
2026-05-04 18:13 33.01367 -96.91353 4699 ft 296 kts 356°
2026-05-04 18:13 33.05322 -96.91326 4022 ft 272 kts 356°
2026-05-04 18:14 33.07173 -96.91335 3870 ft 265 kts 356°
2026-05-04 18:14 33.08995 -96.91526 3590 ft 261 kts 338°
2026-05-04 18:14 33.10509 -96.92585 3452 ft 247 kts 306°
2026-05-04 18:15 33.11488 -96.96143 3116 ft 224 kts 267°
2026-05-04 18:15 33.10951 -96.99546 2983 ft 205 kts 225°
2026-05-04 18:15 33.09963 -97.00769 2925 ft 205 kts 220°
2026-05-04 18:16 33.08934 -97.01917 2904 ft 200 kts 219°
2026-05-04 18:16 33.07919 -97.03023 2869 ft 195 kts 219°
2026-05-04 18:16 33.06930 -97.04093 2823 ft 190 kts 219°
2026-05-04 18:17 33.04674 -97.05090 2602 ft 169 kts 187°
2026-05-04 18:17 33.03529 -97.05256 2509 ft 164 kts 187°
2026-05-04 18:17 33.01312 -97.05409 2483 ft 157 kts 182°
2026-05-04 18:18 33.00266 -97.05420 2320 ft 140 kts 181°
2026-05-04 18:18 32.99344 -97.05426 2132 ft 126 kts 180°
2026-05-04 18:18 32.98517 -97.05429 2002 ft 115 kts 181°
2026-05-04 18:18 32.97714 -97.05432 1864 ft 115 kts 181°
2026-05-04 18:19 32.96218 -97.05434 1438 ft 107 kts 182°
2026-05-04 18:19 32.95445 -97.05427 1306 ft 113 kts 183°
2026-05-04 18:19 32.94642 -97.05445 1180 ft 111 kts 182°
2026-05-04 18:20 32.93896 -97.05447 1082 ft 106 kts 182°
2026-05-04 18:20 32.93154 -97.05454 946 ft 109 kts 182°
2026-05-04 18:20 32.92371 -97.05459 809 ft 114 kts 181°
2026-05-04 18:20 32.91595 -97.05464 672 ft 113 kts 181°
2026-05-04 18:21 32.90845 -97.05468 622 ft 97 kts 181°
2026-05-04 18:21 32.90340 -97.05470 616 ft 46 kts 180°
2026-05-04 18:21 32.90150 -97.05471 618 ft 21 kts 180°
2026-05-04 18:21 32.90005 -97.05437 616 ft 21 kts 160°
2026-05-04 18:22 32.89873 -97.05356 624 ft 21 kts 150°
2026-05-04 18:22 32.89779 -97.05291 624 ft 10 kts 146°
2026-05-04 18:22 32.89760 -97.05208 619 ft 13 kts 90°
2026-05-04 18:22 32.89759 -97.05090 619 ft 15 kts 90°
2026-05-04 18:23 32.89759 -97.04954 618 ft 18 kts 90°
2026-05-04 18:23 32.89758 -97.04822 603 ft 11 kts 90°
2026-05-04 18:23 32.89717 -97.04765 602 ft 11 kts 175°
2026-05-04 18:23 32.89636 -97.04765 602 ft 12 kts 180°
2026-05-04 18:24 32.89545 -97.04766 602 ft 14 kts 180°
2026-05-04 18:24 32.89453 -97.04765 600 ft 11 kts 172°
2026-05-04 18:24 32.89428 -97.04709 600 ft 8 kts 94°
2026-05-04 18:24 32.89428 -97.04645 602 ft 9 kts 90°
2026-05-04 18:25 32.89427 -97.04563 602 ft 11 kts 91°
2026-05-04 18:25 32.89426 -97.04458 602 ft 14 kts 91°
2026-05-04 18:25 32.89431 -97.04391 602 ft 7 kts 61°
2026-05-04 18:25 32.89479 -97.04378 602 ft 9 kts
2026-05-04 18:26 32.89509 -97.04377 602 ft 2 kts
2026-05-04 18:26 32.89514 -97.04377 602 ft 0 kts